[[{"header":{"parameterUnit":"m.s-1","parameterCategory":1,"la1":30.2992,"la2":30.254,"lo1":-89.0895,"lo2":-89.0443,"dy":0.0025,"dx":0.0025,"nx":19,"ny":19,"refTime":"2026-03-11T09:00:00:Z","depth":0,"parameterNumber":2,"parameterNumberName":"U-component_of_WINDS"},"data":[0,0,0,1.1703,1.1702,1.163,1.1629,1.1558,1.1557,0,0,0,0,0,0,0,0,0,0,0,1.1736,1.1736,1.1703,1.1701,1.163,1.1629,1.1558,1.1557,0,0,0,0,0,0,0,0,0,0,0,1.1736,1.1736,1.1735,1.1701,1.163,1.1629,1.1558,1.1605,0,0,0,0,0,0,0,0,0,0,1.1672,1.1713,1.1736,1.1735,1.1701,1.163,1.1629,1.1607,1.1602,1.1599,0,1.1598,0,1.1577,1.1554,1.1554,0,0,0,1.1693,1.1717,1.1687,1.1735,1.17,1.163,1.166,1.1604,1.1599,1.1593,1.1597,1.1594,1.1576,1.1553,1.1553,1.156,1.1561,0,0,1.1697,1.1729,1.1691,1.1684,1.1695,1.1662,1.1658,1.1601,1.1608,1.1597,1.1592,1.1574,1.1553,1.1553,1.156,1.1561,0,0,0,1.1714,1.1732,1.1703,1.1688,1.1673,1.166,1.1655,1.161,1.1598,1.1591,1.1574,1.1553,1.1552,1.1559,1.156,1.1612,0,0,0,1.1716,1.1742,1.1705,1.1724,1.1674,1.164,1.1666,1.1602,1.1595,1.1574,1.1553,1.1552,1.1559,1.156,1.161,1.1631,0,0,0,1.1736,1.1744,1.1738,1.1726,1.1696,1.1641,1.1625,1.16,1.1585,1.1554,1.1551,1.1559,1.156,1.1607,1.1628,1.1643,0,0,0,1.1767,1.1785,1.1739,1.1752,1.1697,1.1673,1.1625,1.1606,1.1585,1.1553,1.1559,1.156,1.1607,1.1625,1.1641,1.1662,1.1674,0,0,1.1807,1.1791,1.1796,1.1753,1.1745,1.1682,1.1682,1.1633,1.1601,1.1576,1.1576,1.161,1.1627,1.1643,1.1727,1.1737,0,0,0,1.1819,1.1823,1.1814,1.1796,1.1759,1.173,1.1678,1.166,1.1637,1.1595,1.1619,1.1628,1.1636,1.1644,1.1652,1.1657,1.1565,1.1565,1.1565,1.192,1.1879,1.1885,1.1835,1.1819,1.1765,1.1748,1.1715,1.1678,1.1685,1.1677,1.1733,1.1745,1.175,1.1756,1.1684,1.1685,1.1685,1.1685,1.1975,1.1974,1.1925,1.1913,1.187,1.186,1.181,1.1784,1.1769,1.1735,1.174,1.1707,1.1762,1.1765,1.1688,1.1688,1.1687,1.1687,1.1687,1.2037,1.2029,1.2007,1.1978,1.196,1.191,1.1898,1.1858,1.1821,1.1826,1.1814,1.1813,1.1808,1.1823,1.1823,1.1824,1.1824,1.1824,1.1824,1.211,1.2083,1.2078,1.2041,1.2025,1.1999,1.1947,1.193,1.1902,1.1874,1.1874,1.1837,1.1775,1.176,1.1827,1.1826,1.1826,1.1826,1.1825,1.218,1.2158,1.215,1.2134,1.2088,1.2074,1.2025,1.1995,1.1975,1.1971,1.1933,1.1893,1.1874,1.1867,1.1855,1.1942,1.1942,1.1942,1.1942,1.2233,1.2219,1.2202,1.2179,1.2153,1.2108,1.2101,1.2061,1.2017,1.2003,1.1984,1.1965,1.196,1.1943,1.1935,1.1923,1.2025,1.2025,1.2025,1.2274,1.2256,1.2257,1.2213,1.2175,1.2144,1.2137,1.2114,1.2059,1.2027,1.1991,1.1987,1.1955,1.1947,1.1914,1.1902,1.1879,0,0]},{"header":{"parameterUnit":"m.s-1","parameterCategory":1,"la1":30.2992,"la2":30.254,"lo1":-89.0895,"lo2":-89.0443,"dy":0.0025,"dx":0.0025,"nx":19,"ny":19,"refTime":"2026-03-11T09:00:00:Z","depth":0,"parameterNumber":3,"parameterNumberName":"V-component_of_WINDS"},"data":[0,0,0,4.7476,4.7482,4.7762,4.7763,4.8102,4.8105,0,0,0,0,0,0,0,0,0,0,0,4.7379,4.7381,4.7476,4.7482,4.7762,4.7763,4.8102,4.8105,0,0,0,0,0,0,0,0,0,0,0,4.7378,4.738,4.7382,4.7483,4.7762,4.7763,4.8101,4.7897,0,0,0,0,0,0,0,0,0,0,4.7629,4.7524,4.738,4.7383,4.7485,4.7761,4.7763,4.7888,4.791,4.7966,0,4.801,0,4.8063,4.8126,4.8127,0,0,0,4.7494,4.7506,4.7594,4.7383,4.7487,4.7761,4.7639,4.79,4.7925,4.7996,4.8015,4.8029,4.8068,4.8128,4.813,4.8415,4.8415,0,0,4.7478,4.7422,4.7576,4.7609,4.7562,4.763,4.7647,4.7916,4.7935,4.8017,4.8037,4.8074,4.813,4.8133,4.8414,4.8415,0,0,0,4.7426,4.7411,4.7493,4.7595,4.7647,4.7638,4.7658,4.7923,4.7954,4.8041,4.8078,4.8132,4.8136,4.8413,4.8414,4.84,0,0,0,4.7417,4.738,4.7486,4.7454,4.7641,4.7787,4.7658,4.7935,4.7968,4.8076,4.8132,4.8139,4.8412,4.8414,4.8399,4.8403,0,0,0,4.7366,4.7375,4.741,4.745,4.7568,4.7784,4.7832,4.7944,4.799,4.8128,4.814,4.8412,4.8413,4.8397,4.8401,4.8464,0,0,0,4.7295,4.7392,4.7409,4.7533,4.7566,4.7772,4.7831,4.7988,4.8104,4.8134,4.8412,4.8414,4.8397,4.84,4.8462,4.8508,4.852,0,0,4.7387,4.7401,4.7479,4.7502,4.7691,4.7734,4.7923,4.8083,4.8148,4.8323,4.8331,4.8399,4.8401,4.8464,4.8609,4.8619,0,0,0,4.7489,4.7545,4.7607,4.7715,4.7839,4.7947,4.8084,4.8145,4.8296,4.8225,4.8439,4.8442,4.8481,4.8506,4.8514,4.8553,4.8422,4.8422,4.8422,4.7539,4.7617,4.7752,4.7865,4.7969,4.8111,4.8204,4.831,4.8357,4.8407,4.846,4.8538,4.8565,4.8571,4.8611,4.8488,4.8488,4.8488,4.8488,4.7683,4.7775,4.7838,4.7991,4.8075,4.8206,4.8348,4.8378,4.8515,4.8504,4.8543,4.8526,4.858,4.8619,4.8488,4.8488,4.8488,4.8488,4.8488,4.7725,4.7784,4.7855,4.8021,4.8141,4.8253,4.8382,4.8453,4.8521,4.8559,4.8625,4.8626,4.8637,4.8585,4.8585,4.8586,4.8586,4.8586,4.8586,4.7742,4.7823,4.7922,4.8064,4.8145,4.826,4.8406,4.8489,4.8599,4.8641,4.8642,4.8687,4.8569,4.8539,4.8591,4.859,4.859,4.8589,4.8589,4.7862,4.7847,4.7999,4.808,4.8256,4.8372,4.8462,4.8625,4.8703,4.8766,4.8804,4.8704,4.8724,4.8718,4.8695,4.8784,4.8784,4.8784,4.8784,4.7899,4.7917,4.8091,4.8216,4.8347,4.8445,4.8619,4.8735,4.8853,4.8908,4.8905,4.8879,4.8869,4.8896,4.8886,4.8865,4.8996,4.8996,4.8996,4.7979,4.8013,4.8146,4.8259,4.8403,4.8526,4.8694,4.8838,4.8969,4.9006,4.8953,4.8944,4.8903,4.8884,4.8921,4.8903,4.8866,0,0]}]]